Regional Weather Roundup
Issued by NWS

Home | Current Version | Previous Version | Text Only | Print | Product List | Glossary Off
Versions: 1 2 3 4 5 6 7 8 9 10 11 12 13 14 15 16 17 18 19 20 21 22 23 24 25 26 27 28 29 30 31 32 33 34 35 36 37 38 39 40 41 42 43 44 45 46 47 48 49 50

000
ASUS44 KMEG 021000
RWRTN
TENNESSEE HOURLY STATE WEATHER ROUNDUP
NATIONAL WEATHER SERVICE MEMPHIS TN
500 AM CDT WED SEP 02 2015

TNZ002-004-019-021-049-052-054-088>092-021100-
WEST TENNESSEE

CITY           SKY/WX    TMP DP  RH WIND       PRES   REMARKS
MEMPHIS INTL   CLOUDY    80  70  71 SE3       30.07S
NWS MEMPHIS      N/A     73 N/A N/A MISG        N/A
JACKSON        CLOUDY    71  69  93 CALM      30.09R
DYERSBURG      MOCLDY    72  70  94 CALM      30.09S
PARIS          CLEAR     68  66  94 CALM      30.10S
$$

TNZ008-025-027-028-033-062-065-066-021100-
NORTH MIDDLE TENNESSEE

CITY           SKY/WX    TMP DP  RH WIND       PRES   REMARKS
NASHVILLE      MOCLDY    71  67  87 CALM      30.11R
CLARKSVILLE    CLOUDY    69  67  93 NE3       30.09S FOG
COOKEVILLE       N/A     64  64 100 CALM      30.12S VSB 1/2
CROSSVILLE     PTCLDY    66  63  90 CALM      30.17S
$$

TNZ061-075-076-078-094-096-097-021100-
SOUTH MIDDLE TENNESSEE

CITY           SKY/WX    TMP DP  RH WIND       PRES   REMARKS
$$

TNZ017-018-042-046-047-021100-
NORTHEAST TENNESSEE

CITY           SKY/WX    TMP DP  RH WIND       PRES   REMARKS
TRI CITIES     MOCLDY    65  64  97 CALM      30.15S
$$

TNZ012-013-036-069-073-074-021100-
CENTRAL EAST TENNESSEE

CITY           SKY/WX    TMP DP  RH WIND       PRES   REMARKS
KNOXVILLE      MOCLDY    69  69 100 CALM      30.11S
OAK RIDGE      PTCLDY    69  66  90 CALM      30.13S
GATLINBURG     CLOUDY    66  64  94 CALM      30.12R
$$

TNZ083-085-099-021100-
SOUTHEAST TENNESSEE

CITY           SKY/WX    TMP DP  RH WIND       PRES   REMARKS
CHATTANOOGA    MOCLDY    71  68  90 N3        30.11S
$$

SKY/WX REPORTED AS FAIR MEANS FEW OR NO CLOUDS BELOW
12 THOUSAND FEET.




USA.gov is the U.S. government's official web portal to all federal, state and local government web resources and services.